STARLINK-32456, 62041

Orbit data source: Space-Track

STARLINK-32456, 62041 is a payload satellite owned by SpaceX/Seattle (US) in LEO that was launched on Thu, 21 Nov 2024 UTC via an FALCON 9 launch vehicle from the Air Force Eastern Test Range (AFETR). Payload-class satellites include a variety of spacecraft equipped with specific instruments for various scientific and technological missions. These include communications satellites like Starlink; space stations such as the ISS; scientific satellites like the Hubble; Earth observation satellites from companies like Planet Labs, Umbra, and HawkEye 360; GPS; miniature CubeSats for education and research; and military/defense satellites.

Loading next visibility...
Identifier
62041, 2024-216K
Orbit
LEO
Country
Flag of USUS
Related business
Manufacturer
SpaceX/Seattle
Mission
Operational Commercial Communications
Bus & Motor
STARLINK V2M, Unknown motor
Mass
730 kg wet, ~700 kg dry
Launch date (UTC)
2024-11-21 (10 months ago)
Launch vehicle
FALCON 9
Launch site
Air Force Eastern Test Range (AFETR)
Object type
Payload
Rocket body
Debris
Shape & HBR
Box + 2 Pan, 14.5 m
Radar Cross Section
36.964 m², Large (>1 m²)

Expand to show TLE details & history
Last TLE update: 1 day ago

TLE from 1 day ago
0 STARLINK-32456
1 62041U 24216K   25261.07548178  .00033218  00000-0  12102-2 0  9999
2 62041  43.0013 151.4076 0001586 292.0421  68.0262 15.27607294 47479
Epoch: 2025-09-18T01:48Z
TLE epoch observation values (Epoch: 2025-09-18T01:48:41.625Z)
Latitude
-0.00004°
Longitude
126.99184°
Altitude
482.336 km
Speed
7.626 km/s
True Right ascension
10h 05m 37s
True Declination
0° 00' 00"
Sunlit
Object was in daylight at epoch
Visualization orbit readout
Latitude
Unknown
Longitude
Unknown
Altitude
Unknown
Speed
Unknown
Apparent Right ascension
Unknown
Apparent Declination
Unknown
Sunlit
N/A
Visualization observer readout
Local Sidereal Time
22:05:47
Azimuth
Unknown
Elevation
Unknown
Doppler factor
Unknown
Orbital elements
Apogee altitude
486.001 km
Perigee altitude
483.824 km
Semi-major axis
6,863.049 km
Eccentricity
0.00016
Inclination
43.0013°
RAAN
151.4076°
Arg. of periapsis
292.0421°
True anomaly
68.04306°
Mean anomaly
68.0262°
Eccentric anomaly
68.03463°
Mean motion
3.8174 °/min
Orbital period
94.31 mins
BSTAR
0.0012102
Loading maneuver chart data...
Computing Atmospheric mass density...
Loading historical data...
Loading historical data...
Loading historical data...
Loading historical data...
Loading historical data...
Loading historical data...
Loading historical data...

Documentation

Showing up to 5 results
|